Date,TemperatureHighF,TemperatureAvgF,TemperatureLowF,DewpointHighF,DewpointAvgF,DewpointLowF,HumidityHigh,HumidityAvg,HumidityLow,PressureMaxIn,PressureMinIn,WindSpeedMaxMPH,WindSpeedAvgMPH,GustSpeedMaxMPH,PrecipitationSumIn
2013-1-1,49.2,45.8,42.0,49.0,41.4,29.0,99,85,57,30.20,30.02,3,0,6,0.27
2013-1-2,48.9,45.1,40.0,49.0,42.7,38.0,99,91,74,30.27,30.00,4,1,10,0.24
2013-1-3,49.0,40.7,29.3,39.0,36.8,28.0,95,86,62,30.35,30.23,2,0,5,0.00
2013-1-4,53.4,36.9,24.9,30.0,25.5,21.0,98,69,31,30.42,30.28,5,1,9,0.00
2013-1-5,52.1,36.8,24.9,33.0,26.4,22.0,92,69,35,30.49,30.35,2,0,5,0.00
2013-1-6,53.5,42.3,35.5,40.0,37.3,31.0,97,84,57,30.34,30.15,2,0,5,0.01
2013-1-7,55.7,38.8,27.9,35.0,31.7,27.0,98,79,41,30.53,30.27,5,0,12,0.00
2013-1-8,57.6,41.8,28.9,40.0,35.7,28.0,98,81,45,30.56,30.45,4,0,4,0.00
2013-1-9,71.1,49.8,34.8,51.0,43.6,34.0,99,82,47,30.54,30.44,2,0,5,0.00
2013-1-10,67.7,52.9,44.9,48.0,45.0,39.0,99,77,45,30.61,30.50,4,0,7,0.00
2013-1-11,50.5,47.2,41.9,49.0,43.6,33.0,99,88,55,30.52,30.24,2,0,4,0.25
2013-1-12,75.4,57.5,48.6,65.0,55.4,48.0,100,93,68,30.25,30.17,1,0,4,0.00
2013-1-13,78.7,61.3,50.8,63.0,57.1,51.0,100,88,54,30.21,30.12,4,0,10,0.00
2013-1-14,69.9,62.9,57.0,64.0,60.2,56.0,97,91,79,30.22,30.15,1,0,4,0.00
2013-1-15,62.4,47.5,45.1,61.0,46.3,44.0,99,95,86,30.31,30.14,8,1,13,0.00
2013-1-16,49.6,46.3,43.8,50.0,46.0,43.0,100,98,97,30.16,30.06,4,0,7,0.18
2013-1-17,50.5,46.7,33.1,50.0,46.3,32.0,100,98,95,30.25,29.97,8,2,19,0.83
2013-1-18,48.8,35.8,27.5,34.0,29.9,24.0,99,82,42,30.63,30.24,4,0,10,0.61
2013-1-19,57.2,36.1,24.4,34.0,28.8,24.0,98,79,35,30.60,30.25,4,0,6,0.01
2013-1-20,67.2,46.3,34.2,39.0,34.3,31.0,94,68,30,30.25,30.07,4,0,9,0.00
2013-1-21,64.0,43.3,28.5,36.0,29.0,19.0,98,64,28,30.17,29.95,4,0,8,0.00
2013-1-22,44.6,34.1,25.5,21.0,7.9,-3.0,56,35,16,30.38,30.05,6,1,12,0.00
2013-1-23,44.0,29.0,17.5,19.0,11.9,4.0,80,52,24,30.48,30.16,4,0,9,0.00
2013-1-24,38.6,31.4,23.8,26.0,13.8,3.0,88,52,24,30.61,30.06,9,2,18,0.00
2013-1-25,28.0,25.3,20.3,27.0,16.4,5.0,95,71,40,30.63,30.22,3,0,4,0.03
2013-1-26,41.9,31.6,26.2,35.0,28.7,25.0,97,90,66,30.51,30.20,4,0,6,0.25
2013-1-27,45.2,32.2,22.2,30.0,26.6,21.0,98,82,50,30.70,30.50,5,0,7,0.03
2013-1-28,51.3,42.3,31.5,47.0,37.5,29.0,96,84,65,30.60,30.32,3,0,7,0.02
2013-1-29,76.4,57.1,43.8,59.0,51.6,43.0,99,84,52,30.33,30.14,4,0,10,0.00
2013-1-30,71.5,66.1,57.1,65.0,62.2,56.0,98,87,76,30.14,29.46,12,2,18,0.19
2013-1-31,62.8,46.6,32.0,61.0,32.9,22.0,95,62,30,30.10,29.55,13,2,15,0.18
2013-2-1,42.9,34.8,24.9,30.0,15.1,4.0,80,49,23,30.48,29.97,9,2,20,0.00
2013-2-2,47.2,33.8,18.2,37.0,15.7,8.0,86,51,25,30.50,30.12,6,1,10,0.00
2013-2-3,53.5,42.3,32.3,38.0,30.9,25.0,93,67,38,30.11,29.94,7,1,9,0.00
2013-2-4,51.7,38.1,25.2,29.0,24.7,21.0,92,63,31,30.24,30.09,4,0,6,0.00
2013-2-5,65.2,46.8,36.0,36.0,33.1,28.0,88,62,30,30.10,29.95,6,1,9,0.00
2013-2-6,66.6,45.6,30.1,37.0,29.7,22.0,98,62,20,30.36,30.05,5,1,8,0.00
2013-2-7,49.3,42.7,36.2,42.0,37.8,33.0,97,84,65,30.41,30.07,5,2,15,0.37
2013-2-8,57.8,46.5,39.8,48.0,41.0,29.0,97,82,58,30.14,29.90,6,2,15,0.61
2013-2-9,56.1,40.2,27.7,30.0,24.5,18.0,94,60,23,30.45,30.14,4,1,11,0.00
2013-2-10,59.9,40.2,24.6,42.0,25.6,22.0,94,63,23,30.58,30.30,4,0,8,0.03
2013-2-11,62.2,55.5,44.2,60.0,54.5,42.0,99,96,92,30.29,30.00,6,1,10,0.06
2013-2-12,65.6,53.2,44.4,54.0,38.3,28.0,98,63,25,30.16,29.98,3,0,8,0.00
2013-2-13,48.0,45.8,42.7,47.0,44.4,39.0,99,95,77,30.02,29.70,3,0,7,0.19
2013-2-14,56.2,41.4,30.2,39.0,33.8,30.0,99,78,44,30.16,29.92,6,0,9,0.01
2013-2-15,67.5,44.2,27.9,42.0,32.7,27.0,99,71,27,30.18,30.01,3,0,7,0.00
2013-2-16,45.0,37.0,30.7,37.0,32.8,26.0,97,86,66,30.06,29.92,5,1,8,0.43
2013-2-17,39.9,30.5,22.3,26.0,15.9,8.0,86,58,29,30.38,30.01,9,2,15,0.00
2013-2-18,56.8,35.3,17.6,27.0,19.7,16.0,96,61,21,30.51,30.34,4,1,8,0.00
2013-2-19,51.3,41.7,32.0,50.0,39.0,27.0,97,90,70,30.34,29.95,4,1,11,0.12
2013-2-20,56.7,41.1,27.8,37.0,23.3,15.0,98,55,20,30.23,30.05,6,1,11,0.00
2013-2-21,59.2,41.3,24.6,24.0,19.9,15.0,87,48,19,30.34,30.20,6,1,9,0.00
2013-2-22,43.2,36.9,33.2,36.0,33.5,22.0,98,88,43,30.44,30.22,4,0,8,0.43
2013-2-23,43.3,40.1,36.2,43.0,39.7,36.0,99,98,97,30.20,29.90,4,0,6,1.07
2013-2-24,66.5,49.1,36.7,49.0,39.7,29.0,100,75,30,30.12,29.88,4,0,8,0.10
2013-2-25,44.2,38.0,32.5,34.0,25.6,22.0,91,63,44,30.31,30.13,5,1,10,0.00
2013-2-26,56.3,45.2,35.6,56.0,41.9,26.0,99,89,62,30.23,29.63,5,1,13,0.79
2013-2-27,64.1,49.4,38.9,46.0,41.3,37.0,99,78,40,29.87,29.70,6,1,9,0.00
2013-2-28,52.8,40.6,31.2,40.0,32.8,27.0,99,77,39,29.94,29.78,6,0,11,0.00
2013-3-1,55.3,39.0,26.7,33.0,28.8,26.0,98,70,38,30.00,29.93,6,1,11,0.00
2013-3-2,53.3,38.4,25.8,32.0,26.0,20.0,98,65,34,30.01,29.89,6,1,10,0.00
2013-3-3,50.1,36.2,25.1,23.0,20.1,17.0,83,55,31,30.07,29.93,7,1,10,0.00
2013-3-4,53.2,36.2,22.4,25.0,18.0,14.0,82,53,21,30.21,30.07,5,1,12,0.00
2013-3-5,50.5,42.0,32.4,45.0,36.6,25.0,98,83,44,30.17,29.65,3,0,7,0.27
2013-3-6,48.2,42.9,37.1,46.0,33.5,27.0,99,72,50,30.11,29.59,10,3,18,0.06
2013-3-7,54.6,42.5,30.8,32.0,29.1,25.0,90,61,40,30.32,30.11,6,2,13,0.00
2013-3-8,58.1,43.3,27.4,29.0,25.3,23.0,90,54,27,30.37,30.23,8,2,16,0.00
2013-3-9,66.7,46.4,28.5,32.0,28.0,25.0,90,55,22,30.43,30.31,5,1,10,0.00
2013-3-10,74.0,50.3,30.4,37.0,28.4,21.0,96,54,14,30.41,30.28,3,0,7,0.00
2013-3-11,76.5,55.9,37.0,54.0,43.9,26.0,91,66,40,30.32,30.01,5,1,9,0.00
2013-3-12,73.6,61.0,50.0,63.0,52.7,34.0,98,77,45,30.02,29.82,7,1,11,0.48
2013-3-13,62.0,47.2,33.7,35.0,28.0,20.0,93,52,26,30.21,30.02,6,2,16,0.04
2013-3-14,57.5,41.8,29.0,25.0,19.7,17.0,69,44,21,30.33,30.18,7,2,15,0.00
2013-3-15,67.5,45.4,25.7,36.0,29.2,23.0,93,59,26,30.28,29.98,6,1,13,0.00
2013-3-16,82.6,62.6,46.7,51.0,45.0,35.0,80,56,31,29.98,29.73,6,1,13,0.00
2013-3-17,62.1,52.7,41.7,53.0,45.7,38.0,95,78,59,30.25,29.90,7,2,15,0.00
2013-3-18,45.1,41.3,38.4,43.0,40.0,37.0,98,95,91,30.28,29.93,5,2,10,0.13
2013-3-19,71.0,52.5,41.0,51.0,36.2,14.0,99,64,19,30.10,29.90,9,2,10,0.27
2013-3-20,60.3,47.7,36.8,29.0,17.2,10.0,72,32,19,30.20,29.87,5,1,9,0.01
2013-3-21,51.8,40.2,30.8,31.0,20.3,11.0,81,48,24,30.06,29.81,8,2,12,0.00
2013-3-22,56.6,38.4,22.3,28.0,16.3,12.0,80,45,19,30.18,30.05,6,1,13,0.00
2013-3-23,58.2,45.5,36.8,33.0,27.9,21.0,81,53,30,30.14,29.99,4,0,6,0.00
2013-3-24,41.5,38.6,33.9,39.0,36.2,30.0,96,91,76,30.01,29.66,9,2,15,0.28
2013-3-25,50.8,40.3,36.2,41.0,32.8,25.0,98,77,41,29.90,29.64,8,1,15,0.16
2013-3-26,54.2,41.8,30.9,30.0,27.8,26.0,85,60,36,30.20,29.91,9,2,11,0.08
2013-3-27,55.5,42.6,32.2,28.0,24.9,21.0,81,53,28,30.32,30.20,10,2,15,0.05
2013-3-28,60.8,43.6,27.6,30.0,25.1,23.0,89,54,24,30.38,30.23,11,2,12,0.06
2013-3-29,64.0,45.7,27.2,32.0,26.9,23.0,94,55,23,30.42,30.26,6,1,9,0.00
2013-3-30,72.4,53.3,39.3,45.0,36.7,27.0,87,59,22,30.33,30.16,7,1,10,0.00
2013-3-31,71.2,57.8,48.4,62.0,52.8,44.0,98,84,63,30.18,29.88,6,1,12,0.36
2013-4-1,77.6,60.5,53.7,55.0,48.6,38.0,99,71,26,30.03,29.88,7,1,12,0.11
2013-4-2,65.2,50.6,36.2,37.0,29.7,23.0,83,49,22,30.23,30.05,8,2,12,0.04
2013-4-3,66.6,51.3,41.6,33.0,24.1,18.0,62,38,18,30.37,30.21,8,1,11,0.02
2013-4-4,49.2,43.2,39.6,41.0,34.0,23.0,97,73,44,30.43,30.00,8,2,15,0.01
2013-4-5,67.4,49.4,39.8,49.0,43.6,39.0,98,83,47,30.09,29.96,8,1,10,0.04
2013-4-6,71.2,52.5,39.0,43.0,33.8,24.0,97,56,23,30.35,30.09,8,1,14,0.03
2013-4-7,77.7,55.0,36.6,47.0,40.1,34.0,93,62,28,30.36,30.18,5,1,9,0.02
2013-4-8,86.2,66.0,50.8,58.0,53.0,48.0,99,67,32,30.25,30.12,5,1,9,0.02
2013-4-9,90.4,71.4,55.1,61.0,56.9,54.0,99,65,31,30.25,30.12,6,1,9,0.02
2013-4-10,93.8,74.9,59.5,64.0,59.5,57.0,95,63,31,30.17,30.00,5,1,12,0.02
2013-4-11,86.9,72.1,59.9,67.0,61.5,58.0,97,72,41,30.06,29.86,4,1,10,0.01
2013-4-12,84.4,72.3,62.3,73.0,64.8,50.0,97,78,51,29.88,29.67,7,1,11,0.01
2013-4-13,80.2,63.4,51.8,51.0,42.2,39.0,76,49,24,30.07,29.83,7,1,13,0.00
2013-4-14,87.7,65.2,44.4,56.0,45.2,38.0,98,57,18,30.17,30.08,4,0,9,0.01
2013-4-15,74.3,65.9,59.0,59.0,57.1,53.0,95,75,54,30.27,30.08,5,0,11,0.00
2013-4-16,82.8,67.4,56.0,63.0,58.9,55.0,99,77,46,30.37,30.26,5,0,6,0.01
2013-4-17,85.8,69.4,56.7,67.0,61.7,56.0,99,79,49,30.30,30.17,5,0,8,0.00
2013-4-18,86.0,71.4,59.6,64.0,61.1,58.0,98,72,42,30.26,30.10,3,0,9,0.00
2013-4-19,85.5,72.7,65.6,71.0,66.3,62.0,98,82,56,30.11,29.77,5,1,15,0.07
2013-4-20,68.2,57.6,48.2,65.0,43.3,35.0,97,63,31,30.34,29.89,4,1,13,0.02
2013-4-21,65.6,53.5,42.8,44.0,40.8,38.0,93,65,40,30.56,30.34,7,1,12,0.00
2013-4-22,64.6,51.7,39.1,47.0,39.0,32.0,87,64,39,30.56,30.34,6,2,13,0.00
2013-4-23,69.9,56.4,48.1,53.0,48.3,46.0,93,76,47,30.36,30.20,6,1,9,0.01
2013-4-24,81.3,64.3,48.8,59.0,54.1,47.0,96,73,43,30.23,30.04,5,1,11,0.00
2013-4-25,75.7,63.0,51.9,57.0,47.3,39.0,89,59,34,30.34,30.08,7,1,12,0.00
2013-4-26,78.8,61.9,48.6,51.0,43.8,35.0,95,59,21,30.50,30.34,6,0,9,0.00
2013-4-27,81.3,65.5,54.4,56.0,48.6,42.0,81,58,26,30.45,30.33,2,0,6,0.00
2013-4-28,64.2,59.7,56.7,58.0,53.8,46.0,97,81,59,30.34,30.18,1,0,3,1.08
2013-4-29,75.3,64.4,56.1,66.0,61.4,55.0,99,90,66,30.18,30.03,2,0,4,1.14
2013-4-30,69.4,63.1,57.9,62.0,59.6,56.0,97,88,73,30.24,30.07,5,0,8,0.00
2013-5-1,63.3,59.8,57.2,59.0,57.3,56.0,95,91,86,30.39,30.23,6,1,11,0.00
2013-5-2,66.1,60.6,55.9,59.0,56.6,53.0,94,87,76,30.40,30.33,6,1,9,0.00
2013-5-3,73.5,60.3,49.9,57.0,50.7,44.0,95,73,49,30.34,30.23,5,1,11,0.00
2013-5-4,69.3,57.8,50.6,53.0,49.2,44.0,88,74,54,30.29,30.14,6,2,12,0.00
2013-5-5,61.2,56.8,51.3,57.0,52.2,47.0,91,84,78,30.17,30.05,6,1,10,0.00
2013-5-6,68.4,61.3,56.8,66.0,60.0,56.0,98,95,89,30.07,29.90,5,1,8,1.30
2013-5-7,74.3,61.3,51.8,63.0,55.1,50.0,98,82,45,30.02,29.92,3,0,7,0.01
2013-5-8,76.5,64.0,54.6,63.0,58.1,53.0,96,83,54,30.08,29.99,3,0,7,0.15
2013-5-9,84.5,68.0,56.8,65.0,59.4,56.0,97,77,41,30.13,30.05,3,0,7,0.00
2013-5-10,91.1,72.8,57.0,66.0,61.4,56.0,96,71,38,30.13,30.01,5,0,8,0.00
2013-5-11,86.5,74.1,68.0,72.0,64.8,60.0,92,74,47,30.02,29.85,4,0,10,0.03
2013-5-12,78.9,68.3,58.3,65.0,51.8,36.0,92,59,33,30.09,29.85,5,1,11,0.00
2013-5-13,72.5,59.3,47.3,43.0,38.7,33.0,83,50,24,30.25,30.10,4,0,9,0.00
2013-5-14,75.5,59.5,42.2,48.0,41.8,37.0,92,57,25,30.34,30.15,7,0,8,0.00
2013-5-15,91.8,71.4,55.7,65.0,56.4,45.0,81,61,37,30.15,29.96,5,1,9,0.00
2013-5-16,92.9,75.9,63.6,67.0,63.1,59.0,90,68,35,30.04,29.96,2,0,7,0.00
2013-5-17,93.7,77.0,63.6,68.0,63.5,59.0,92,67,34,30.14,30.04,2,0,4,0.00
2013-5-18,83.1,72.0,64.5,71.0,66.2,62.0,97,83,59,30.22,30.13,3,0,5,0.97
2013-5-19,84.8,72.7,66.3,74.0,68.9,65.0,97,88,61,30.22,30.12,3,0,8,0.19
2013-5-20,82.0,72.0,68.2,76.0,70.1,68.0,98,94,75,30.18,30.09,2,0,6,1.22
2013-5-21,89.6,76.2,69.9,76.0,70.8,69.0,95,84,59,30.12,30.01,5,0,5,0.00
2013-5-22,90.1,76.7,70.0,73.0,69.8,68.0,95,81,53,30.10,29.97,5,0,7,0.01
2013-5-23,88.7,77.0,70.8,73.0,70.0,68.0,93,80,56,30.02,29.87,4,0,7,0.00
2013-5-24,74.8,67.2,55.1,67.0,54.7,40.0,93,67,36,30.25,29.87,7,1,17,0.00
2013-5-25,77.9,60.6,44.2,53.0,44.4,37.0,92,60,24,30.35,30.21,5,1,11,0.00
2013-5-26,78.0,63.5,49.8,55.0,48.9,42.0,87,63,32,30.35,30.25,3,0,7,0.00
2013-5-27,87.3,68.3,51.5,60.0,54.1,49.0,93,65,29,30.35,30.23,4,0,7,0.00
2013-5-28,92.0,75.2,63.1,70.0,64.2,57.0,91,70,44,30.32,30.21,4,0,7,0.00
2013-5-29,92.5,76.2,63.9,68.0,64.9,61.0,93,71,40,30.31,30.22,4,0,8,0.00
2013-5-30,88.2,75.4,64.5,73.0,65.5,62.0,94,73,45,30.34,30.24,5,0,7,0.00
2013-5-31,92.6,75.9,65.1,71.0,64.3,-99.9,98,73,42,30.29,30.16,4,0,6,0.10
2013-6-1,92.5,77.9,66.7,73.0,67.9,66.0,97,74,43,30.21,30.08,3,0,7,0.00
2013-6-2,90.0,78.2,67.8,71.0,68.5,65.0,95,74,51,30.12,29.96,4,1,8,0.00
2013-6-3,84.9,75.4,68.2,77.0,72.0,67.0,96,89,68,30.02,29.89,2,0,7,0.68
2013-6-4,81.7,72.1,65.9,69.0,65.7,64.0,97,82,57,30.16,30.00,6,0,9,0.00
2013-6-5,84.1,74.3,65.8,68.0,62.9,59.0,92,69,43,30.20,30.08,5,0,6,0.00
2013-6-6,81.5,72.7,67.0,75.0,68.6,60.0,97,87,64,30.10,29.89,2,0,6,0.42
2013-6-7,75.7,71.3,69.4,74.0,70.7,69.0,99,98,95,29.92,29.57,5,0,12,3.51
2013-6-8,84.1,74.4,69.0,75.0,70.7,66.0,99,88,69,30.16,29.88,3,0,8,0.04
2013-6-9,92.5,77.9,67.9,77.0,72.0,67.0,96,83,53,30.23,30.12,2,0,9,0.02
2013-6-10,84.2,76.2,72.6,80.0,74.0,71.0,98,93,81,30.16,29.96,8,1,9,0.77
2013-6-11,88.9,77.3,70.7,73.0,69.9,66.0,96,80,49,30.02,29.96,7,0,9,0.00
2013-6-12,92.1,78.2,65.9,78.0,71.6,64.0,96,81,55,30.04,29.92,3,0,7,0.00
2013-6-13,97.4,81.2,69.0,80.0,73.9,64.0,97,81,46,29.93,29.66,6,0,12,0.16
2013-6-14,82.3,72.1,61.1,69.0,61.0,57.0,96,71,44,30.08,29.79,9,1,14,0.00
2013-6-15,89.1,72.9,59.6,68.0,63.2,58.0,96,74,44,30.19,30.08,3,0,7,0.00
2013-6-16,90.1,76.2,63.4,74.0,66.7,59.0,89,73,54,30.20,30.07,4,0,11,0.00
2013-6-17,87.1,78.1,71.2,75.0,70.6,67.0,89,78,63,30.10,29.99,3,0,5,0.00
2013-6-18,86.5,76.1,70.7,77.0,72.0,69.0,98,87,69,30.04,29.81,4,0,11,0.74
2013-6-19,84.7,74.3,67.0,71.0,67.9,65.0,97,82,58,30.18,29.94,4,0,6,0.01
2013-6-20,87.4,74.5,65.8,68.0,64.0,58.0,95,72,44,30.30,30.18,4,0,7,0.00
2013-6-21,86.2,72.0,59.3,67.0,59.7,52.0,90,68,37,30.32,30.25,3,0,7,0.00
2013-6-22,85.7,75.7,71.1,74.0,70.0,67.0,93,83,67,30.27,30.18,6,1,6,0.00
2013-6-23,90.8,77.9,70.1,77.0,72.6,68.0,95,84,60,30.28,30.19,3,0,4,0.01
2013-6-24,90.7,79.7,72.4,80.0,74.0,71.0,95,83,61,30.27,30.15,4,0,7,0.00
2013-6-25,91.3,77.4,70.9,83.0,73.1,69.0,95,87,62,30.20,30.07,6,0,8,0.30
2013-6-26,93.0,77.9,70.5,80.0,72.8,67.0,97,85,59,30.10,29.96,3,0,11,0.35
2013-6-27,90.8,78.1,69.0,80.0,74.1,68.0,97,88,63,29.99,29.77,3,0,8,0.06
2013-6-28,93.5,79.7,71.6,80.0,74.4,70.0,98,85,57,29.81,29.64,5,0,14,1.17
2013-6-29,86.8,77.2,69.4,78.0,73.7,69.0,99,89,68,29.79,29.67,3,0,5,0.46
2013-6-30,93.3,77.9,72.1,81.0,74.4,70.0,98,89,68,29.93,29.77,3,0,6,0.25
2013-7-1,84.2,76.6,70.8,78.0,74.1,70.0,99,92,78,30.05,29.90,2,0,7,0.83
2013-7-2,78.7,75.2,73.2,76.0,73.8,72.0,98,96,89,30.25,30.05,2,0,7,0.37
2013-7-3,90.8,79.0,73.9,82.0,76.0,73.0,98,91,68,30.31,30.22,3,0,8,0.13
2013-7-4,92.8,80.8,73.5,79.0,74.7,71.0,98,83,60,30.34,30.24,4,0,8,0.02
2013-7-5,94.2,82.3,73.0,78.0,74.9,72.0,96,80,54,30.34,30.22,2,0,6,0.00
2013-7-6,91.0,80.6,74.7,80.0,75.0,72.0,95,84,64,30.31,30.18,6,0,6,0.05
2013-7-7,92.1,80.4,70.8,79.0,74.4,69.0,97,83,62,30.25,30.12,0,0,1,0.00
2013-7-8,92.2,80.8,74.2,79.0,74.6,71.0,94,82,56,30.23,30.15,1,0,7,0.00
2013-7-9,93.0,79.8,73.3,80.0,74.5,71.0,96,84,62,30.22,30.12,4,0,7,0.00
2013-7-10,91.5,80.5,74.2,79.0,75.2,72.0,94,84,64,30.17,30.01,1,0,7,0.04
2013-7-11,86.3,77.0,73.8,78.0,74.4,72.0,97,92,73,30.04,29.94,1,0,1,0.39
2013-7-12,80.1,75.0,72.4,74.0,72.4,70.0,98,92,77,30.09,29.94,3,0,8,0.14
2013-7-13,81.2,75.2,72.0,78.0,73.3,70.0,97,94,87,30.24,30.08,2,0,5,0.19
2013-7-14,93.1,79.7,70.9,79.0,74.5,70.0,99,85,55,30.36,30.24,0,0,0,0.04
2013-7-15,93.4,80.1,71.3,78.0,73.7,70.0,98,83,51,30.38,30.31,0,0,0,0.00
2013-7-16,98.0,82.4,70.7,79.0,73.9,69.0,98,78,47,30.34,30.23,0,0,0,0.00
2013-7-17,97.0,84.8,76.0,79.0,75.5,72.0,95,76,46,30.28,30.16,0,0,0,0.00
2013-7-18,96.7,84.7,76.0,81.0,77.0,74.0,95,79,52,30.19,30.09,0,0,0,0.00
2013-7-19,94.8,83.5,76.3,79.0,76.2,74.0,95,80,56,30.16,30.04,0,0,0,0.00
2013-7-20,92.9,81.7,75.8,79.0,75.4,73.0,92,82,61,30.09,29.98,0,0,0,0.00
2013-7-21,92.2,81.1,74.7,79.0,75.1,72.0,94,83,59,30.06,29.96,0,0,0,0.03
2013-7-22,90.5,80.3,72.9,79.0,74.9,72.0,96,84,66,30.01,29.89,0,0,0,0.01
2013-7-23,93.6,81.7,75.4,81.0,74.8,73.0,93,80,54,29.91,29.78,0,0,0,0.03
2013-7-24,98.2,83.1,72.2,76.0,73.0,70.0,95,74,41,29.90,29.79,0,0,0,0.01
2013-7-25,82.5,76.1,70.0,74.0,69.7,68.0,92,81,65,30.10,29.87,0,0,0,0.00
2013-7-26,90.5,76.0,64.4,70.0,66.1,63.0,96,74,45,30.17,30.08,0,0,0,0.00
2013-7-27,93.8,77.6,69.0,74.0,70.2,67.0,96,80,45,30.12,30.00,0,0,0,0.21
2013-7-28,91.3,79.0,70.6,78.0,72.8,69.0,97,82,54,30.07,29.99,0,0,0,0.11
2013-7-29,89.4,77.3,70.6,75.0,70.5,67.0,98,81,52,30.21,30.05,0,0,0,0.27
2013-7-30,91.1,77.3,64.7,72.0,67.7,63.0,94,74,45,30.29,30.20,0,0,0,0.00
2013-7-31,87.0,79.2,73.1,76.0,73.2,70.0,93,82,64,30.21,30.07,0,0,0,0.05
2013-8-1,86.7,77.4,71.9,78.0,73.7,71.0,97,89,68,30.08,29.93,0,0,0,0.10
2013-8-2,92.1,78.7,68.8,75.0,71.7,68.0,97,81,51,30.08,29.97,0,0,0,0.08
2013-8-3,93.1,80.2,73.5,80.0,74.9,72.0,97,85,60,30.08,29.96,0,0,0,0.37
2013-8-4,87.3,77.2,69.6,75.0,69.3,62.0,98,79,48,30.09,29.95,0,0,0,0.01
2013-8-5,88.4,76.1,66.7,70.0,66.5,62.0,94,75,45,30.16,30.06,0,0,0,0.00
2013-8-6,85.8,76.4,68.8,74.0,69.7,66.0,98,80,58,30.13,30.06,0,0,0,0.15
2013-8-7,90.5,79.1,70.7,74.0,71.1,68.0,93,78,54,30.17,30.08,0,0,0,0.01
2013-8-8,92.8,81.4,72.8,76.0,73.4,71.0,94,78,52,30.13,30.05,0,0,0,0.00
2013-8-9,94.5,82.5,74.9,80.0,75.7,73.0,95,81,59,30.12,30.04,0,0,0,0.00
2013-8-10,96.8,82.8,76.0,80.0,75.5,72.0,95,80,55,30.16,30.06,0,0,0,0.00
2013-8-11,96.4,82.9,73.3,79.0,74.7,72.0,95,78,52,30.17,30.06,0,0,0,0.00
2013-8-12,97.7,83.9,74.8,76.0,74.2,71.0,96,75,45,30.10,29.99,0,0,0,0.00
2013-8-13,92.4,80.6,72.1,83.0,75.9,71.0,97,87,62,30.02,29.83,0,0,0,0.35
2013-8-14,79.1,74.0,65.6,74.0,67.2,61.0,95,80,66,30.16,29.89,0,0,0,0.00
2013-8-15,81.6,68.9,62.1,62.0,59.8,57.0,91,74,47,30.23,30.14,0,0,0,0.00
2013-8-16,72.3,67.2,60.9,64.0,61.2,59.0,94,82,68,30.25,30.16,0,0,0,0.00
2013-8-17,72.5,68.8,65.3,72.0,66.8,62.0,98,93,86,30.24,30.18,0,0,0,0.27
2013-8-18,85.7,75.3,70.2,74.0,70.5,67.0,98,86,63,30.27,30.18,0,0,0,0.02
2013-8-19,76.7,71.9,68.3,74.0,70.2,66.0,98,94,88,30.26,30.16,0,0,0,0.31
2013-8-20,85.5,77.2,70.0,77.0,73.0,69.0,97,87,66,30.25,30.18,0,0,0,0.00
2013-8-21,91.8,78.4,71.9,78.0,73.5,70.0,97,86,60,30.29,30.17,0,0,0,0.01
2013-8-22,93.3,80.4,71.7,78.0,72.6,69.0,97,79,46,30.21,30.05,0,0,0,0.00
2013-8-23,91.3,78.7,69.9,77.0,71.9,67.0,96,81,55,30.13,29.99,0,0,0,0.00
2013-8-24,86.6,74.5,66.3,67.0,63.0,57.0,92,70,41,30.37,30.14,0,0,0,0.00
2013-8-25,84.0,70.9,61.3,65.0,60.5,55.0,96,73,41,30.46,30.35,0,0,0,0.00
2013-8-26,88.1,70.1,56.4,63.0,58.9,55.0,96,72,36,30.39,30.19,0,0,0,0.00
2013-8-27,92.4,75.5,62.6,75.0,67.5,60.0,92,78,49,30.20,30.03,0,0,0,0.00
2013-8-28,87.1,77.8,70.4,78.0,74.0,69.0,96,88,68,30.05,29.93,0,0,0,0.00
2013-8-29,88.7,79.9,73.5,75.0,73.1,71.0,95,81,60,30.07,29.90,0,0,0,0.00
2013-8-30,93.7,77.8,65.8,70.0,67.9,65.0,99,75,40,30.13,30.00,0,0,0,0.00
2013-8-31,92.7,78.5,68.1,76.0,70.9,67.0,95,79,52,30.04,29.92,0,0,0,0.00
2013-9-1,93.1,78.9,71.0,81.0,73.7,70.0,98,85,59,29.96,29.83,0,0,0,1.71
2013-9-2,91.0,78.6,70.9,80.0,74.4,70.0,98,87,63,29.95,29.86,0,0,0,0.00
2013-9-3,91.7,80.6,73.6,79.0,74.5,72.0,97,83,57,30.00,29.86,0,0,0,0.00
2013-9-4,90.1,77.7,68.6,75.0,70.4,65.0,95,80,56,30.15,30.00,0,0,0,0.00
2013-9-5,93.0,77.3,67.9,71.0,66.3,60.0,95,73,35,30.16,30.09,0,0,0,0.00
2013-9-6,85.8,73.4,65.7,66.0,62.4,60.0,93,71,46,30.24,30.14,0,0,0,0.00
2013-9-7,88.1,72.3,60.4,68.0,63.8,59.0,96,77,46,30.21,30.04,0,0,0,0.00
2013-9-8,92.6,76.1,64.1,68.0,64.1,57.0,96,71,31,30.05,29.97,0,0,0,0.00
2013-9-9,92.9,77.4,66.6,73.0,68.4,65.0,95,76,44,30.22,30.05,0,0,0,0.00
2013-9-10,95.5,79.7,69.1,74.0,69.9,67.0,95,75,41,30.30,30.20,0,0,0,0.00
2013-9-11,93.7,78.2,68.2,74.0,69.6,67.0,95,77,48,30.27,30.14,0,0,0,0.00
2013-9-12,94.9,79.4,70.2,75.0,71.2,68.0,94,78,50,30.14,29.87,0,0,0,0.00
2013-9-13,88.4,76.9,70.6,71.0,64.1,52.0,95,68,42,29.95,29.82,0,0,0,0.00
2013-9-14,81.2,68.8,60.4,57.0,53.6,50.0,85,61,37,30.20,29.95,0,0,0,0.00
2013-9-15,85.2,68.9,55.1,64.0,58.6,53.0,94,72,41,30.31,30.18,0,0,0,0.00
2013-9-16,88.6,75.4,66.9,76.0,66.2,59.0,98,75,43,30.25,30.10,0,0,0,0.42
2013-9-17,80.6,69.1,61.2,60.0,55.8,52.0,84,65,39,30.38,30.25,0,0,0,0.00
2013-9-18,77.5,63.3,52.1,55.0,52.5,48.0,94,71,36,30.38,30.25,0,0,0,0.00
2013-9-19,80.1,67.3,55.8,65.0,59.4,53.0,93,77,51,30.27,30.15,0,0,0,0.00
2013-9-20,73.3,68.6,64.8,71.0,65.9,62.0,97,90,81,30.16,30.04,0,0,0,0.21
2013-9-21,81.0,71.6,66.5,74.0,69.7,66.0,98,93,76,30.04,29.80,0,0,0,0.78
2013-9-22,79.9,69.0,60.4,67.0,62.5,58.0,99,82,51,29.96,29.78,0,0,0,0.54
2013-9-23,76.9,63.5,55.2,61.0,55.6,52.0,95,78,46,30.14,29.97,0,0,0,0.00
2013-9-24,78.2,64.2,54.6,63.0,57.8,53.0,96,81,53,30.18,30.02,0,0,13,0.00
2013-9-25,76.9,64.6,54.3,65.0,59.5,53.0,97,85,53,30.03,29.94,4,0,4,0.00
2013-9-26,80.0,67.7,59.0,63.0,59.0,53.0,96,76,41,30.10,29.94,4,0,10,0.00
2013-9-27,76.0,64.0,55.0,61.0,57.0,53.0,95,80,53,30.26,30.10,4,0,9,0.00
2013-9-28,75.6,62.1,52.3,58.0,54.9,51.0,98,79,50,30.33,30.23,5,0,10,0.00
2013-9-29,77.5,62.6,52.8,58.0,54.5,51.0,97,78,45,30.25,30.10,7,0,9,0.00
2013-9-30,78.7,63.3,52.5,62.0,55.7,51.0,96,79,45,30.17,30.07,2,0,5,0.00
2013-10-1,86.0,66.4,52.9,66.0,58.9,52.0,99,79,45,30.20,30.09,3,0,6,0.00
2013-10-2,88.4,70.2,58.6,68.0,61.2,57.0,95,76,42,30.20,30.11,4,0,5,0.00
2013-10-3,87.4,71.6,60.2,68.0,63.3,59.0,95,78,43,30.20,30.12,3,0,6,0.00
2013-10-4,89.2,73.1,62.5,71.0,65.2,61.0,97,79,47,30.20,30.11,3,0,6,0.00
2013-10-5,94.0,74.5,62.6,73.0,65.9,61.0,97,77,44,30.18,30.09,2,0,7,0.00
2013-10-6,88.2,73.5,63.6,74.0,68.7,63.0,99,86,55,30.14,30.00,4,0,6,0.00
2013-10-7,73.5,70.9,64.9,73.0,69.9,62.0,99,96,88,30.06,29.92,4,0,9,0.94
2013-10-8,64.7,61.1,59.3,61.0,51.9,48.0,87,72,64,30.27,30.05,6,2,11,0.00
2013-10-9,62.9,59.1,55.1,58.0,53.9,51.0,96,83,75,30.25,30.16,9,3,14,0.05
2013-10-10,61.3,57.4,54.0,60.0,56.4,53.0,98,96,93,30.16,30.01,6,2,12,0.16
2013-10-11,69.2,63.0,58.8,65.0,61.0,58.0,99,93,81,30.04,29.98,4,0,7,0.03
2013-10-12,69.2,64.7,61.0,67.0,63.1,60.0,98,94,87,30.15,30.03,2,0,8,0.03
2013-10-13,68.2,64.6,62.2,65.0,63.2,61.0,98,95,88,30.27,30.15,7,1,10,0.08
2013-10-14,66.2,62.4,57.0,63.0,61.1,56.0,99,95,88,30.31,30.25,5,1,10,0.13
2013-10-15,73.7,63.0,54.1,63.0,58.6,54.0,99,87,64,30.27,30.13,4,0,9,0.01
2013-10-16,72.1,65.7,60.8,65.0,62.5,60.0,97,90,74,30.13,30.03,1,0,4,0.00
2013-10-17,78.0,67.0,59.0,68.0,63.9,59.0,99,90,65,30.04,29.91,4,0,7,0.00
2013-10-18,70.0,63.4,56.8,65.0,55.9,48.0,99,78,51,30.11,29.95,4,0,9,0.00
2013-10-19,71.4,64.0,59.4,66.0,61.3,57.0,97,91,82,30.05,29.89,1,0,4,0.01
2013-10-20,66.9,55.7,45.2,59.0,48.2,43.0,98,79,43,30.20,29.98,9,1,10,0.01
2013-10-21,70.8,52.9,39.3,54.0,46.4,39.0,99,82,41,30.25,30.09,2,0,5,0.00
2013-10-22,64.9,57.0,50.7,61.0,55.3,49.0,98,94,84,30.09,29.88,0,0,1,0.00
2013-10-23,70.4,58.8,47.6,59.0,49.1,35.0,99,74,41,30.09,29.76,5,1,10,0.00
2013-10-24,62.4,47.8,35.8,41.0,37.2,34.0,95,70,37,30.26,30.08,4,0,9,0.00
2013-10-25,57.4,47.0,35.7,38.0,33.2,28.0,89,61,35,30.45,30.26,6,1,11,0.00
2013-10-26,60.8,43.0,28.7,41.0,33.7,28.0,98,74,37,30.45,30.17,3,0,8,0.00
2013-10-27,70.1,53.1,40.2,48.0,43.0,38.0,96,72,36,30.21,30.13,3,0,7,0.00
2013-10-28,69.4,55.1,43.2,58.0,50.8,42.0,98,87,64,30.34,30.20,0,0,3,0.00
2013-10-29,74.9,59.5,50.1,59.0,54.1,49.0,99,85,54,30.41,30.32,4,0,4,0.00
2013-10-30,74.3,61.7,53.1,63.0,57.5,52.0,99,87,61,30.37,30.24,3,0,8,0.00
2013-10-31,76.7,64.8,55.9,64.0,59.1,55.0,99,83,58,30.27,30.01,4,0,8,0.00
2013-11-1,73.0,67.7,61.5,68.0,65.8,61.0,99,93,83,29.99,29.75,4,0,9,1.07
2013-11-2,72.3,61.0,50.5,61.0,54.0,46.0,99,81,40,30.01,29.77,4,0,9,0.00
2013-11-3,64.5,50.3,40.6,47.0,41.2,38.0,95,75,40,30.45,30.02,5,1,11,0.00
2013-11-4,57.8,44.7,35.8,40.0,35.7,33.0,95,74,40,30.64,30.45,5,0,9,0.00
2013-11-5,59.7,48.9,37.7,50.0,42.9,34.0,89,80,62,30.63,30.50,6,0,7,0.00
2013-11-6,72.6,56.8,44.1,59.0,51.6,43.0,98,85,52,30.51,30.19,2,0,5,0.00
2013-11-7,70.6,60.3,44.7,65.0,54.5,35.0,99,83,53,30.19,30.00,4,0,11,0.03
2013-11-8,60.4,45.3,34.1,36.0,31.7,27.0,89,63,30,30.41,30.19,4,0,10,0.00
2013-11-9,61.7,43.8,29.6,40.0,34.2,29.0,98,73,35,30.47,30.28,4,0,7,0.00
2013-11-10,74.0,51.5,36.2,45.0,38.5,32.0,97,67,27,30.32,30.14,3,0,9,0.00
2013-11-11,61.4,45.3,32.2,36.0,32.2,29.0,91,64,32,30.44,30.23,2,0,6,0.00
2013-11-12,62.3,41.7,34.2,42.0,34.4,21.0,97,78,42,30.51,30.14,6,1,16,0.02
2013-11-13,46.3,33.9,25.1,23.0,20.4,18.0,88,61,32,30.63,30.51,5,1,9,0.00
2013-11-14,58.5,37.0,22.4,30.0,25.4,21.0,96,69,28,30.57,30.43,3,0,6,0.00
2013-11-15,61.9,44.7,27.9,48.0,37.4,26.0,95,78,43,30.46,30.30,2,0,4,0.01
2013-11-16,70.7,56.6,48.5,59.0,53.2,48.0,98,89,66,30.35,30.27,3,0,6,0.00
2013-11-17,72.7,61.8,52.7,65.0,58.9,52.0,99,91,67,30.29,29.98,3,0,6,0.08
2013-11-18,76.5,65.6,54.5,67.0,55.0,32.0,99,72,38,30.03,29.86,6,1,12,0.03
2013-11-19,57.3,48.5,41.5,33.0,30.3,28.0,73,51,33,30.39,30.04,7,1,13,0.00
2013-11-20,54.6,44.8,38.0,39.0,33.0,28.0,87,64,47,30.53,30.40,6,1,10,0.00
2013-11-21,62.3,50.1,40.4,49.0,43.1,38.0,90,78,61,30.59,30.47,5,1,6,0.00
2013-11-22,71.8,58.4,46.1,62.0,53.9,44.0,96,85,69,30.47,30.16,7,0,7,0.03
2013-11-23,61.0,55.5,43.1,60.0,46.0,23.0,98,73,42,30.25,30.11,5,0,11,0.03
2013-11-24,42.8,33.2,23.6,25.0,11.3,3.0,70,42,24,30.64,30.25,11,2,18,0.00
2013-11-25,45.6,30.9,18.6,22.0,15.1,10.0,90,57,24,30.69,30.48,4,0,5,0.00
2013-11-26,64.3,46.4,36.2,64.0,38.7,17.0,99,77,42,30.47,29.66,5,1,8,0.78
2013-11-27,50.2,40.4,30.2,49.0,37.6,20.0,99,90,65,30.26,29.59,7,1,11,0.54
2013-11-28,46.9,31.8,21.8,26.0,22.1,18.0,93,70,40,30.59,30.26,4,0,9,0.01
2013-11-29,51.9,34.6,23.0,30.0,26.0,22.0,98,75,38,30.73,30.57,4,0,9,0.00
2013-11-30,49.1,35.6,26.7,34.0,29.1,24.0,95,78,56,30.74,30.47,6,1,8,0.00
2013-12-1,59.8,40.9,27.0,41.0,33.8,26.0,98,79,41,30.46,30.11,2,0,4,0.00
2013-12-2,62.6,45.5,37.6,46.0,40.7,36.0,97,85,53,30.11,29.91,1,0,5,0.00
2013-12-3,58.4,45.3,31.9,48.0,41.5,31.0,99,87,66,30.08,29.95,2,0,4,0.00
2013-12-4,66.9,57.1,52.2,59.0,53.7,48.0,97,89,75,30.17,30.07,3,0,4,0.00
2013-12-5,67.5,60.9,52.7,65.0,60.0,52.0,100,97,90,30.21,30.11,3,0,6,0.02
2013-12-6,80.0,68.9,62.7,67.0,64.0,62.0,98,85,61,30.15,30.04,7,1,16,0.00
2013-12-7,67.7,49.9,43.4,66.0,45.7,35.0,96,85,72,30.53,30.07,9,2,12,0.23
2013-12-8,43.3,36.6,34.3,35.0,33.3,31.0,98,88,68,30.55,30.39,5,2,9,0.09
2013-12-9,45.6,40.2,34.9,45.0,39.8,34.0,99,98,98,30.38,30.16,2,0,4,0.12
2013-12-10,47.9,43.5,28.9,47.0,41.7,28.0,99,93,71,30.42,30.00,8,0,9,0.44
2013-12-11,49.7,33.9,23.7,32.0,27.7,23.0,98,81,41,30.56,30.39,2,0,4,0.00
2013-12-12,45.5,33.2,24.9,28.0,23.2,16.0,96,71,31,30.51,30.37,5,1,10,0.00
2013-12-13,54.2,34.4,21.7,33.0,25.2,20.0,96,74,30,30.50,30.37,4,0,7,0.00
2013-12-14,48.1,41.4,36.4,44.0,38.1,30.0,98,89,55,30.40,29.88,3,0,8,0.86
2013-12-15,56.5,43.3,32.0,47.0,38.0,29.0,99,83,55,30.16,29.81,4,0,8,0.04
2013-12-16,57.0,38.8,27.6,38.0,32.7,27.0,97,82,45,30.27,30.16,2,0,7,0.00
2013-12-17,63.2,45.3,31.4,42.0,36.7,30.0,98,75,41,30.21,29.97,7,0,12,0.00
2013-12-18,51.4,40.1,28.3,39.0,24.4,19.0,88,57,29,30.39,30.12,6,1,10,0.00
2013-12-19,64.5,41.9,26.4,32.0,28.1,24.0,93,64,26,30.43,30.31,7,0,8,0.00
2013-12-20,67.8,52.1,40.3,56.0,45.5,33.0,94,79,61,30.34,30.20,3,0,10,0.00
2013-12-21,75.0,59.9,48.7,66.0,56.3,47.0,98,89,64,30.24,30.12,7,0,12,0.00
2013-12-22,79.9,70.2,63.2,68.0,65.6,62.0,99,86,63,30.19,30.09,7,1,13,0.38
2013-12-23,65.9,60.4,47.1,66.0,59.7,41.0,100,97,80,30.22,30.07,9,1,12,1.65
2013-12-24,48.2,41.9,30.1,41.0,30.4,16.0,81,65,49,30.55,30.20,5,2,13,0.00
2013-12-25,43.8,30.2,22.9,22.0,16.1,12.0,87,59,30,30.65,30.50,3,0,7,0.00
2013-12-26,52.2,36.4,24.7,36.0,29.6,21.0,95,78,43,30.50,30.34,3,0,3,0.02
2013-12-27,52.6,34.9,24.4,30.0,25.5,22.0,96,74,31,30.56,30.46,4,0,5,0.00
2013-12-28,59.5,39.6,23.5,40.0,29.9,22.0,98,73,30,30.50,30.25,2,0,5,0.00
2013-12-29,60.6,48.3,42.8,60.0,47.1,38.0,99,96,73,30.25,29.78,7,0,8,1.97
2013-12-30,54.0,44.0,34.1,49.0,40.6,34.0,100,88,68,30.23,30.01,2,0,5,0.00
2013-12-31,52.3,41.6,30.3,38.0,32.5,26.0,94,72,37,30.45,30.20,6,0,8,0.00
2014-1-1,54.9,38.6,29.1,34.0,29.7,26.0,97,75,35,30.51,30.25,2,0,6,0.00
2014-1-2,49.7,42.9,36.1,46.0,40.0,33.0,98,90,74,30.25,29.68,5,0,8,0.27